Regional Weather Roundup
Issued by NWS Goodland, KS

Home | Current Version | Previous Version | Graphics & Text | Print | Product List | Glossary On
Versions: 1 2 3 4 5 6 7 8 9 10 11 12 13 14 15 16 17 18 19 20 21 22 23 24 25 26 27 28 29 30 31 32 33 34 35 36 37 38 39 40 41 42 43 44 45 46 47 48 49 50
000
ASUS43 KGLD 260059
RWRGLD

GOODLAND FORECAST AREA HOURLY WEATHER ROUNDUP
NATIONAL WEATHER SERVICE GOODLAND KS
700 PM MDT SAT MAR 25 2017

...OFFICIAL OBSERVATIONS...

CITY           SKY/WX    TMP DP  RH WIND       PRES   REMARKS
GOODLAND KS    CLOUDY    50  38  63 E6        29.87F
HILL CITY KS   CLEAR     46  40  79 SE6       29.92R
IMPERIAL NEB   CLOUDY    54  28  36 SE3       29.88S
MCCOOK NEB     CLOUDY    50  43  77 E13       29.90R
AKRON CO       CLOUDY    53  33  46 S12       29.86S
BURLINGTON CO  CLOUDY    55  34  45 CALM      29.88S
LIMON CO       CLOUDY    48  33  56 SE10      29.87F
$$

...UNOFFICIAL OBSERVATIONS...

CITY           SKY/WX    TMP DP  RH WIND       PRES   REMARKS
LENORA KS        N/A     46  32  58 CALM        N/A
NORTON KS      CLEAR     45  37  76 E6        29.91R
SHARON SPRINGS   N/A     56  31  39 CALM        N/A
TRENTON NEB      N/A     56  32  40 CALM        N/A
YUMA CO        FAIR      50  36  57 SE6       29.87S
$$




USA.gov is the U.S. government's official web portal to all federal, state and local government web resources and services.